COSMOS 1805

导读

**COSMOS 1805卫星摘要** COSMOS 1805(宇宙1805)是独联体(CIS)于1986年12月10日发射的军用侦察卫星,属于苏联/俄罗斯“宇宙”系列卫星家族。该系列广泛涵盖军事侦察、空间科学试验等任务,此星入轨后主要承担光学成像侦察任务,为战略情报获取提供支持,服役期间完成既定目标后已进入废弃轨道状态。

Basic Information
目录编号:
17191
目录名称:
COSMOS 1805
国际标识:
1986-097A
轨道中心:
EARTH
卫星名称:
COSMOS 1805
卫星全名:
--
卫星状态:
在轨 (已飞行14523 天)
发射日期:
1986-12-10 UTC
国别 :
俄罗斯(独联体) (CIS)
星等 :
--
This satellite is enrolled in the Space Conjunction Data Service (SCDS) and the current flight risk assessment level is: No High Risk
Orbit Information
数据来源 国际轨道数据
星历时间: 2026-09-14T07:22:34+0800
7小时前
查看轨道信息
半长轴: 6779.747km
偏心率: 0.0003643
轨道倾角: 82.452°
近地点辐角 134.319°
升交点赤经 257.850°
平近点角 225.837°
近地点: 399.14km
远地点: 404.08km
周期: 92.593分钟
每日圈数: 15.55187
Detailed Information
使用方式:
暂无
2D Orbit Map
3D Orbit Map
Orbit Altitude Analysis Chart
Orbit Inclination Analysis Chart
Orbit Comprehensive Analysis Chart
View Comprehensive Chart
Conjunction Data List
Event ID Objects TCA Miss Dist (km) Collision Risk Probability Collision Risk Index (CRI) Action
CDM_260916-150401-719105-275621
HAWK-5B (52756)
2026-09-16T
15:04:01+0000
1.156 km
极远距离
1.678189E-5 中风险 0.59
CDM_260916-224701-719105-275721
HAWK-5A (52757)
2026-09-16T
22:47:17+0000
1.448 km
极远距离
7.703146E-6 低风险 0.53
CDM_260916-211401-719105-275721
HAWK-5A (52757)
2026-09-16T
21:14:36+0000
1.918 km
极远距离
3.259799E-6 低风险 0.45
CDM_260916-163601-719105-275621
HAWK-5B (52756)
2026-09-16T
16:36:42+0000
2.614 km
极远距离
1.656641E-6 低风险 0.39
CDM_260916-235901-719105-683521
2026-09-16T
23:59:06+0000
2.745 km
极远距离
1.43422E-6 低风险 0.38
Miss Distance Evolution Trend with All Objects Subscribe to Flight Safety Assessment
Collision Probability Evolution Trend with All Objects Subscribe to Flight Safety Assessment